TimeCDT,TemperatureF,Dew PointF,Humidity,Sea Level PressureIn,VisibilityMPH,Wind Direction,Wind SpeedMPH,Gust SpeedMPH,PrecipitationIn,Events,Conditions,WindDirDegrees,DateUTC
12:11 AM,5.0,-2.2,72,30.23,10.0,NNW,6.9,-,N/A,,Clear,340,2013-03-17 05:11:00
12:31 AM,5.0,-2.2,72,30.23,10.0,NNW,4.6,-,N/A,,Clear,340,2013-03-17 05:31:00
12:51 AM,5.0,-4.0,66,30.24,10.0,North,5.8,-,N/A,,Clear,350,2013-03-17 05:51:00
1:11 AM,5.0,-4.0,66,30.25,10.0,North,5.8,-,N/A,,Clear,350,2013-03-17 06:11:00
1:31 AM,5.0,-4.0,66,30.25,10.0,NNW,4.6,-,N/A,,Clear,340,2013-03-17 06:31:00
1:51 AM,5.0,-4.0,66,30.25,10.0,NNW,5.8,-,N/A,,Clear,340,2013-03-17 06:51:00
2:11 AM,3.2,-5.8,66,30.25,10.0,North,4.6,-,N/A,,Clear,350,2013-03-17 07:11:00
2:31 AM,3.2,-5.8,66,30.25,10.0,North,4.6,-,N/A,,Clear,360,2013-03-17 07:31:00
2:51 AM,1.4,-5.8,72,30.25,10.0,North,3.5,-,N/A,,Clear,360,2013-03-17 07:51:00
3:11 AM,1.4,-5.8,72,30.25,10.0,Calm,Calm,-,N/A,,Clear,0,2013-03-17 08:11:00
3:32 AM,-0.4,-5.8,78,30.24,10.0,Calm,Calm,-,N/A,,Clear,0,2013-03-17 08:32:00
3:51 AM,-0.4,-5.8,78,30.24,10.0,Calm,Calm,-,N/A,,Clear,0,2013-03-17 08:51:00
4:11 AM,-5.8,-9.4,84,30.23,10.0,Calm,Calm,-,N/A,,Clear,0,2013-03-17 09:11:00
4:32 AM,-0.4,-5.8,78,30.23,10.0,NNE,3.5,-,N/A,,Clear,20,2013-03-17 09:32:00
4:51 AM,-0.4,-5.8,78,30.23,10.0,NNE,4.6,-,N/A,,Clear,20,2013-03-17 09:51:00
5:11 AM,-0.4,-7.6,72,30.23,10.0,Calm,Calm,-,N/A,,Clear,0,2013-03-17 10:11:00
5:32 AM,-5.8,-9.4,84,30.24,10.0,Calm,Calm,-,N/A,,Clear,0,2013-03-17 10:32:00
5:51 AM,-5.8,-9.4,84,30.24,10.0,Calm,Calm,-,N/A,,Clear,0,2013-03-17 10:51:00
6:11 AM,-7.6,-11.2,84,30.24,10.0,North,3.5,-,N/A,,Clear,10,2013-03-17 11:11:00
6:51 AM,-5.8,-9.4,84,30.23,10.0,NNE,3.5,-,N/A,,Clear,20,2013-03-17 11:51:00
7:11 AM,-5.8,-9.4,84,30.24,10.0,Calm,Calm,-,N/A,,Clear,0,2013-03-17 12:11:00
7:31 AM,-2.2,-7.6,78,30.22,10.0,NE,3.5,-,N/A,,Clear,50,2013-03-17 12:31:00
7:51 AM,-0.4,-5.8,78,30.22,10.0,ENE,3.5,-,N/A,,Clear,60,2013-03-17 12:51:00
8:11 AM,-0.4,-5.8,78,30.19,10.0,ENE,5.8,-,N/A,,Clear,60,2013-03-17 13:11:00
8:31 AM,1.4,-5.8,72,30.20,10.0,ENE,5.8,-,N/A,,Clear,70,2013-03-17 13:31:00
8:51 AM,3.2,-5.8,66,30.20,10.0,ENE,8.1,-,N/A,,Clear,70,2013-03-17 13:51:00
9:11 AM,3.2,-5.8,66,30.20,10.0,East,5.8,-,N/A,,Clear,90,2013-03-17 14:11:00
9:31 AM,6.8,-4.0,61,30.20,10.0,East,9.2,-,N/A,,Clear,90,2013-03-17 14:31:00
9:51 AM,8.6,-4.0,57,30.20,10.0,East,8.1,-,N/A,,Clear,100,2013-03-17 14:51:00
10:11 AM,8.6,-2.2,62,30.19,10.0,ESE,9.2,-,N/A,,Mostly Cloudy,110,2013-03-17 15:11:00
10:31 AM,10.4,-2.2,57,30.18,10.0,East,6.9,-,N/A,,Overcast,100,2013-03-17 15:31:00
11:11 AM,12.2,-0.4,57,30.17,10.0,ESE,9.2,-,N/A,,Overcast,110,2013-03-17 16:11:00
11:31 AM,14.0,-0.4,53,30.16,10.0,ESE,12.7,-,N/A,,Overcast,120,2013-03-17 16:31:00
11:51 AM,15.8,-0.4,49,30.15,10.0,ESE,13.8,-,N/A,,Overcast,120,2013-03-17 16:51:00
12:11 PM,15.8,1.4,53,30.15,10.0,ESE,9.2,-,N/A,,Overcast,110,2013-03-17 17:11:00
12:31 PM,15.8,1.4,53,30.15,10.0,SE,10.4,-,N/A,,Mostly Cloudy,130,2013-03-17 17:31:00
12:51 PM,17.6,1.4,49,30.14,10.0,ESE,11.5,-,N/A,,Mostly Cloudy,120,2013-03-17 17:51:00
1:11 PM,17.6,1.4,49,30.12,10.0,ESE,10.4,-,N/A,,Mostly Cloudy,120,2013-03-17 18:11:00
1:31 PM,19.4,3.2,49,30.12,10.0,East,9.2,-,N/A,,Mostly Cloudy,100,2013-03-17 18:31:00
1:51 PM,19.4,3.2,49,30.10,10.0,ESE,11.5,16.1,N/A,,Scattered Clouds,120,2013-03-17 18:51:00
2:11 PM,19.4,3.2,49,30.08,10.0,SE,11.5,-,N/A,,Scattered Clouds,130,2013-03-17 19:11:00
2:31 PM,21.2,3.2,46,30.06,10.0,SE,10.4,-,N/A,,Scattered Clouds,140,2013-03-17 19:31:00
2:51 PM,23.0,5.0,46,30.05,10.0,ESE,9.2,-,N/A,,Scattered Clouds,120,2013-03-17 19:51:00
3:11 PM,21.2,5.0,50,30.03,10.0,East,9.2,-,N/A,,Mostly Cloudy,100,2013-03-17 20:11:00
3:31 PM,23.0,6.8,50,30.02,10.0,East,10.4,-,N/A,,Scattered Clouds,100,2013-03-17 20:31:00
3:51 PM,23.0,5.0,46,30.01,10.0,ESE,10.4,-,N/A,,Mostly Cloudy,120,2013-03-17 20:51:00
4:11 PM,23.0,6.8,50,29.99,10.0,ESE,9.2,-,N/A,,Overcast,110,2013-03-17 21:11:00
4:31 PM,23.0,6.8,50,29.99,10.0,ESE,10.4,-,N/A,,Mostly Cloudy,110,2013-03-17 21:31:00
4:51 PM,23.0,6.8,50,29.99,10.0,ESE,10.4,16.1,N/A,,Scattered Clouds,110,2013-03-17 21:51:00
5:11 PM,23.0,6.8,50,29.98,10.0,ESE,11.5,-,N/A,,Scattered Clouds,120,2013-03-17 22:11:00
5:31 PM,23.0,6.8,50,29.98,10.0,ESE,10.4,-,N/A,,Mostly Cloudy,110,2013-03-17 22:31:00
5:51 PM,23.0,6.8,50,29.97,10.0,ESE,9.2,-,N/A,,Overcast,110,2013-03-17 22:51:00
6:11 PM,23.0,6.8,50,29.96,10.0,East,10.4,-,N/A,,Overcast,100,2013-03-17 23:11:00
6:31 PM,23.0,6.8,50,29.94,10.0,ESE,10.4,16.1,N/A,,Overcast,110,2013-03-17 23:31:00
6:51 PM,23.0,6.8,50,29.93,10.0,East,10.4,-,N/A,,Overcast,100,2013-03-17 23:51:00
7:11 PM,23.0,8.6,54,29.93,10.0,ESE,10.4,16.1,N/A,,Overcast,110,2013-03-18 00:11:00
7:31 PM,23.0,8.6,54,29.92,10.0,ESE,11.5,-,N/A,,Overcast,110,2013-03-18 00:31:00
7:51 PM,23.0,8.6,54,29.92,10.0,East,10.4,16.1,N/A,,Overcast,100,2013-03-18 00:51:00
8:11 PM,23.0,8.6,54,29.91,10.0,East,6.9,-,N/A,,Overcast,90,2013-03-18 01:11:00
8:31 PM,21.2,8.6,58,29.91,10.0,ESE,8.1,-,N/A,,Overcast,110,2013-03-18 01:31:00
9:12 PM,21.2,8.6,58,29.89,10.0,East,10.4,-,N/A,,Overcast,100,2013-03-18 02:12:00
9:51 PM,23.0,10.4,59,29.89,10.0,ESE,5.8,-,N/A,,Overcast,120,2013-03-18 02:51:00
10:11 PM,23.0,10.4,59,29.88,10.0,ESE,5.8,-,N/A,,Overcast,110,2013-03-18 03:11:00
10:31 PM,23.0,10.4,59,29.87,10.0,ESE,6.9,-,N/A,,Overcast,110,2013-03-18 03:31:00
10:52 PM,23.0,10.4,59,29.87,10.0,ESE,5.8,-,N/A,,Overcast,110,2013-03-18 03:52:00
11:11 PM,23.0,10.4,59,29.86,10.0,ESE,5.8,-,N/A,,Overcast,110,2013-03-18 04:11:00
11:31 PM,23.0,10.4,59,29.85,10.0,ESE,5.8,-,N/A,,Overcast,110,2013-03-18 04:31:00
11:52 PM,23.0,10.4,59,29.83,10.0,East,9.2,-,N/A,,Overcast,100,2013-03-18 04:52:00